Weather History for KGAD - March, 2013

Change the Weather History Date:

Sunday, March 24, 2013

  Actual Average Record
Temperature  
Mean Temperature 57 °F -  
Max Temperature 73 °F 64 °F 86 °F (1935)
Min Temperature 39 °F 39 °F 28 °F (2002)
Degree Days  
Heating Degree Days 8    
Growing Degree Days 7 (Base 50)    
Moisture  
Dew Point 43 °F    
Average Humidity 67    
Maximum Humidity 88    
Minimum Humidity 41    
Precipitation  
Precipitation 0.78 in - - ()
Sea Level Pressure  
Sea Level Pressure 29.65 in    
Wind  
Wind Speed 12 mph (NW)    
Max Wind Speed 29 mph    
Max Gust Speed 38 mph    
Visibility 10 miles    
Events Thunderstorm    
Averages and records for this station are not official NWS values.
T = Trace of Precipitation, MM = Missing Value Source: NWS Daily Summary

Daily Weather History Graph

Daily Weather History Graph

Search for Another Location

Airport or City:

Trip Planner

Search our weather history database for the weather conditions in past years. The results will help you decide how hot, cold, wet, or windy it might be!

Date:

Astronomy

Mar. 24, 2013 Rise Set
Actual Time 6:42 AM CDT 6:59 PM CDT
Civil Twilight 6:17 AM CDT 7:24 PM CDT
Nautical Twilight 5:48 AM CDT 7:53 PM CDT
Astronomical Twilight 5:18 AM CDT 8:23 PM CDT
Moon 4:32 PM CDT (3/24) 4:45 AM CDT (3/24)
Length of Visible Light 13h 07m
Length of Day
12h 17m
Waxing Gibbous, 92% of the Moon is Illuminated
Mar 24
Waxing Gibbous
Mar 27
Full
Apr 2
Last Quarter
Apr 10
New
Apr 18
First Quarter

Hourly Weather History & Observations

Time (CDT) Temp. Windchill Dew Point Humidity Pressure Visibility Wind Dir Wind Speed Gust Speed Precip Events Conditions
12:15 AM 51.8 °F - 48.2 °F 88% 29.76 in 9.0 mi North 10.4 mph - 0.10 in Thunderstorm Overcast
12:35 AM 51.8 °F - 48.2 °F 88% 29.75 in 5.0 mi NE 10.4 mph - 0.26 in Thunderstorm Overcast
12:55 AM 51.8 °F - 48.2 °F 88% 29.71 in 7.0 mi ENE 13.8 mph - 0.37 in   Overcast
1:15 AM 51.8 °F - 48.2 °F 88% 29.65 in 10.0 mi East 21.9 mph 28.8 mph 0.04 in   Overcast
1:35 AM 57.2 °F - 48.2 °F 72% 29.65 in 10.0 mi East 17.3 mph 27.6 mph 0.06 in   Overcast
1:55 AM 57.2 °F - 48.2 °F 72% 29.65 in 10.0 mi East 20.7 mph 24.2 mph 0.06 in   Overcast
2:35 AM 57.2 °F - 48.2 °F 72% 29.62 in 10.0 mi East 18.4 mph 24.2 mph 0.07 in Thunderstorm Overcast
2:55 AM 57.2 °F - 48.2 °F 72% 29.61 in 10.0 mi East 15.0 mph 19.6 mph 0.07 in Thunderstorm Overcast
3:15 AM 57.2 °F - 48.2 °F 72% 29.65 in 10.0 mi North 11.5 mph 19.6 mph N/A Thunderstorm Overcast
3:35 AM 57.2 °F - 46.4 °F 67% 29.65 in 5.0 mi ENE 11.5 mph 18.4 mph 0.18 in Thunderstorm Thunderstorm
3:55 AM 57.2 °F - 48.2 °F 72% 29.68 in 10.0 mi NW 6.9 mph - 0.22 in   Mostly Cloudy
4:15 AM 55.4 °F - 48.2 °F 77% 29.66 in 10.0 mi NNE 8.1 mph - 0.02 in   Overcast
4:35 AM 55.4 °F - 48.2 °F 77% 29.64 in 10.0 mi NNE 5.8 mph - 0.03 in   Overcast
4:55 AM 55.4 °F - 48.2 °F 77% 29.63 in 10.0 mi ENE 8.1 mph - 0.03 in   Overcast
5:15 AM 55.4 °F - 48.2 °F 77% 29.62 in 10.0 mi ENE 6.9 mph - N/A   Mostly Cloudy
5:35 AM 53.6 °F - 46.4 °F 77% 29.60 in 10.0 mi ENE 9.2 mph - N/A   Mostly Cloudy
5:55 AM 53.6 °F - 46.4 °F 77% 29.61 in 10.0 mi East 8.1 mph - N/A   Scattered Clouds
6:15 AM 53.6 °F - 46.4 °F 77% 29.62 in 10.0 mi NE 8.1 mph - N/A   Mostly Cloudy
6:35 AM 53.6 °F - 46.4 °F 77% 29.61 in 10.0 mi NE 6.9 mph - N/A   Mostly Cloudy
6:55 AM 53.6 °F - 46.4 °F 77% 29.61 in 10.0 mi ENE 6.9 mph - N/A   Mostly Cloudy
7:15 AM 53.6 °F - 46.4 °F 77% 29.62 in 10.0 mi ENE 4.6 mph - N/A   Overcast
7:35 AM 55.4 °F - 46.4 °F 72% 29.62 in 10.0 mi ENE 5.8 mph - N/A   Overcast
7:55 AM 55.4 °F - 46.4 °F 72% 29.61 in 10.0 mi East 9.2 mph - N/A   Overcast
8:15 AM 55.4 °F - 46.4 °F 72% 29.63 in 10.0 mi East 6.9 mph - N/A   Overcast
8:35 AM 55.4 °F - 46.4 °F 72% 29.64 in 10.0 mi East 5.8 mph - N/A   Overcast
8:55 AM 55.4 °F - 46.4 °F 72% 29.65 in 10.0 mi East 5.8 mph - N/A   Overcast
9:15 AM 62.6 °F - 46.4 °F 55% 29.65 in 10.0 mi East 3.5 mph - N/A   Overcast
9:35 AM 66.2 °F - 48.2 °F 52% 29.62 in 10.0 mi East 11.5 mph - N/A   Mostly Cloudy
9:55 AM 73.4 °F - 48.2 °F 41% 29.62 in 10.0 mi East 10.4 mph - N/A   Scattered Clouds
10:15 AM 69.8 °F - 48.2 °F 46% 29.62 in 10.0 mi NE 6.9 mph - N/A   Mostly Cloudy
10:35 AM 62.6 °F - 48.2 °F 59% 29.60 in 10.0 mi ENE 6.9 mph - N/A   Mostly Cloudy
10:55 AM 60.8 °F - 48.2 °F 63% 29.61 in 10.0 mi East 5.8 mph - N/A   Overcast
11:15 AM 57.2 °F - 48.2 °F 72% 29.62 in 10.0 mi SE 3.5 mph - N/A   Overcast
11:35 AM 57.2 °F - 48.2 °F 72% 29.63 in 10.0 mi Calm Calm - N/A   Overcast
11:55 AM 57.2 °F - 48.2 °F 72% 29.62 in 10.0 mi SSW 5.8 mph - N/A   Overcast
12:15 PM 59.0 °F - 50.0 °F 72% 29.60 in 9.0 mi South 3.5 mph - N/A   Overcast
12:35 PM 59.0 °F - 48.2 °F 67% 29.59 in 10.0 mi SSW 3.5 mph - N/A   Overcast
12:55 PM 60.8 °F - 50.0 °F 68% 29.58 in 10.0 mi South 6.9 mph - N/A   Overcast
1:15 PM 60.8 °F - 50.0 °F 68% 29.58 in 10.0 mi South 8.1 mph - N/A   Overcast
1:35 PM 60.8 °F - 51.8 °F 72% 29.58 in 10.0 mi South 3.5 mph - N/A   Mostly Cloudy
1:55 PM 60.8 °F - 51.8 °F 72% 29.56 in 10.0 mi South 4.6 mph - N/A   Overcast
2:15 PM 60.8 °F - 51.8 °F 72% 29.54 in 10.0 mi Calm Calm - N/A   Overcast
2:35 PM 60.8 °F - 51.8 °F 72% 29.52 in 10.0 mi South 3.5 mph - N/A   Overcast
2:55 PM 60.8 °F - 51.8 °F 72% 29.52 in 10.0 mi SW 5.8 mph - N/A   Mostly Cloudy
3:15 PM 60.8 °F - 51.8 °F 72% 29.51 in 10.0 mi SW 8.1 mph - N/A   Overcast
3:35 PM 62.6 °F - 53.6 °F 72% 29.51 in 10.0 mi WSW 11.5 mph 21.9 mph N/A   Overcast
3:55 PM 60.8 °F - 53.6 °F 77% 29.52 in 10.0 mi WSW 18.4 mph 26.5 mph N/A   Overcast
4:15 PM 55.4 °F - 50.0 °F 82% 29.55 in 10.0 mi West 23.0 mph 28.8 mph 0.03 in   Overcast
4:35 PM 55.4 °F - 48.2 °F 77% 29.56 in 10.0 mi West 25.3 mph 29.9 mph 0.03 in   Overcast
4:55 PM 55.4 °F - 44.6 °F 67% 29.57 in 10.0 mi West 19.6 mph 29.9 mph 0.03 in   Mostly Cloudy
5:15 PM 55.4 °F - 42.8 °F 63% 29.58 in 10.0 mi West 21.9 mph 36.8 mph N/A   Scattered Clouds
5:35 PM 55.4 °F - 42.8 °F 63% 29.59 in 10.0 mi West 13.8 mph 25.3 mph N/A   Scattered Clouds
5:55 PM 55.4 °F - 42.8 °F 63% 29.60 in 10.0 mi West 19.6 mph 32.2 mph N/A   Partly Cloudy
6:15 PM 53.6 °F - 37.4 °F 54% 29.61 in 10.0 mi West 20.7 mph 29.9 mph N/A   Clear
6:35 PM 51.8 °F - 35.6 °F 54% 29.63 in 10.0 mi West 23.0 mph 34.5 mph N/A   Partly Cloudy
6:55 PM 51.8 °F - 33.8 °F 50% 29.65 in 10.0 mi West 28.8 mph 35.7 mph N/A   Scattered Clouds
7:15 PM 48.2 °F - 33.8 °F 58% 29.68 in 10.0 mi West 28.8 mph 38.0 mph N/A   Mostly Cloudy
7:35 PM 46.4 °F 37.9 °F 32.0 °F 57% 29.70 in 10.0 mi West 25.3 mph 34.5 mph N/A   Overcast
7:55 PM 44.6 °F 34.9 °F 28.4 °F 53% 29.72 in 10.0 mi West 28.8 mph 36.8 mph N/A   Overcast
8:15 PM 44.6 °F 36.4 °F 28.4 °F 53% 29.74 in 10.0 mi West 20.7 mph 28.8 mph N/A   Overcast
8:35 PM 44.6 °F 36.4 °F 28.4 °F 53% 29.75 in 10.0 mi West 20.7 mph 31.1 mph N/A   Overcast
8:55 PM 42.8 °F 35.4 °F 28.4 °F 57% 29.77 in 10.0 mi West 15.0 mph 32.2 mph N/A   Overcast
9:15 PM 42.8 °F 35.1 °F 28.4 °F 57% 29.77 in 10.0 mi West 16.1 mph 25.3 mph N/A   Overcast
9:35 PM 42.8 °F 37.0 °F 28.4 °F 57% 29.78 in 10.0 mi West 10.4 mph 21.9 mph N/A   Overcast
9:55 PM 42.8 °F 36.2 °F 28.4 °F 57% 29.78 in 10.0 mi West 12.7 mph 24.2 mph N/A   Overcast
10:15 PM 42.8 °F 35.8 °F 28.4 °F 57% 29.78 in 10.0 mi West 13.8 mph 24.2 mph N/A   Overcast
10:35 PM 42.8 °F 34.5 °F 28.4 °F 57% 29.79 in 10.0 mi West 18.4 mph 25.3 mph N/A   Overcast
10:55 PM 42.8 °F 34.3 °F 26.6 °F 53% 29.80 in 10.0 mi West 19.6 mph 26.5 mph N/A   Overcast
11:15 PM 41.0 °F 32.2 °F 26.6 °F 57% 29.81 in 10.0 mi WNW 18.4 mph 26.5 mph N/A   Overcast
11:35 PM 41.0 °F 31.6 °F 24.8 °F 53% 29.82 in 10.0 mi WNW 20.7 mph 27.6 mph N/A   Overcast
11:55 PM 39.2 °F 31.2 °F 24.8 °F 56% 29.82 in 10.0 mi WNW 13.8 mph 25.3 mph N/A   Overcast